This is the latest recevied weather packets stored in our database for station/object KB1RMA-4. If no packets are shown the sender has not sent any weather packets the latest 10 day(s).
| Time | Temp. | Humidity | Pressure | Rain* | Wind** | Luminosity | Snow |
|---|---|---|---|---|---|---|---|
| 1787699358 | 23.89° C | 56% | 1012.8 hPa | 0 mm | - | 12 W/m² | - |
| 1787699053 | 23.89° C | 55% | 1012.7 hPa | 0 mm | - | 14 W/m² | - |
| 1787698748 | 23.89° C | 54% | 1012.8 hPa | 0 mm | - | 16 W/m² | - |
| 1787698444 | 24.44° C | 54% | 1012.7 hPa | 0 mm | - | 19 W/m² | - |
| 1787698140 | 24.44° C | 52% | 1012.6 hPa | 0 mm | - | 21 W/m² | - |
| 1787697835 | 24.44° C | 53% | 1012.7 hPa | 0 mm | - | 23 W/m² | - |
| 1787697530 | 24.44° C | 52% | 1012.5 hPa | 0 mm | - | 25 W/m² | - |
| 1787697226 | 24.44° C | 52% | 1012.5 hPa | 0 mm | - | 29 W/m² | - |
| 1787696921 | 25° C | 51% | 1012.7 hPa | 0 mm | - | 29 W/m² | - |
| 1787696617 | 25° C | 50% | 1012.6 hPa | 0 mm | - | 30 W/m² | - |
| 1787696312 | 25° C | 51% | 1012.8 hPa | 0 mm | - | 33 W/m² | - |
| 1787696007 | 25° C | 50% | 1012.7 hPa | 0 mm | - | 34 W/m² | - |
| 1787695707 | 25° C | 51% | 1012.8 hPa | 0 mm | - | 36 W/m² | - |
| 1787695404 | 25° C | 50% | 1012.5 hPa | 0 mm | - | 38 W/m² | - |
| 1787695104 | 25° C | 50% | 1012.5 hPa | 0 mm | - | 39 W/m² | - |
| 1787694802 | 25° C | 51% | 1012.7 hPa | 0 mm | - | 40 W/m² | - |
| 1787694499 | 25.56° C | 50% | 1012.7 hPa | 0 mm | - | 42 W/m² | - |
| 1787694198 | 25.56° C | 50% | 1012.6 hPa | 0 mm | - | 43 W/m² | - |
| 1787693894 | 25.56° C | 49% | 1012.6 hPa | 0 mm | - | 44 W/m² | - |
| 1787693589 | 25.56° C | 49% | 1012.6 hPa | 0 mm | - | 47 W/m² | - |
| 1787693286 | 25.56° C | 48% | 1012.6 hPa | 0 mm | - | 51 W/m² | - |
| 1787692981 | 26.11° C | 47% | 1012.4 hPa | 0 mm | - | 56 W/m² | - |
| 1787692676 | 25.56° C | 50% | 1012.4 hPa | 0 mm | - | 193 W/m² | - |
| 1787692372 | 25.56° C | 51% | 1012.6 hPa | 0 mm | - | 254 W/m² | - |
| 1787692066 | 25.56° C | 52% | 1012.4 hPa | 0 mm | - | 65 W/m² | - |
* Rain latest hour (hover to see other rain measurements)
** Current wind speed in m/s (hover to see current wind gust speed)